Iron Mountain, MI

2:28 PM CDT on June 25, 2017 (GMT -0500)
Ford

Weather History for KIMT - February, 2013

Change the Weather History Date:

Saturday, February 16, 2013

  Actual Average Record
Temperature  
Mean Temperature 4 °F -  
Max Temperature 15 °F 27 °F 53 °F (2011)
Min Temperature -9 °F 4 °F -20 °F (1963)
Degree Days  
Heating Degree Days 62    
Moisture  
Dew Point -4 °F    
Average Humidity 70    
Maximum Humidity 91    
Minimum Humidity 49    
Precipitation  
Precipitation 0.00 in - - ()
Sea Level Pressure  
Sea Level Pressure 30.16 in    
Wind  
Wind Speed 3 mph (NNW)    
Max Wind Speed 15 mph    
Max Gust Speed 20 mph    
Visibility 10 miles    
Events      
Averages and records for this station are not official NWS values.
T = Trace of Precipitation, MM = Missing Value Source: NWS Daily Summary

Daily Weather History Graph

Daily Weather History Graph

Search for Another Location

Airport or City:

Trip Planner

Search our weather history database for the weather conditions in past years. The results will help you decide how hot, cold, wet, or windy it might be!

Date:

Astronomy

Feb. 16, 2013 Rise Set
Actual Time 6:52 AM CST 5:20 PM CST
Civil Twilight 6:22 AM CST 5:51 PM CST
Nautical Twilight 5:47 AM CST 6:26 PM CST
Astronomical Twilight 5:12 AM CST 7:00 PM CST
Moon 9:42 AM CST (2/16) No Moon Set
Length of Visible Light 11h 29m
Length of Day
10h 28m
Waxing Crescent, 39% of the Moon is Illuminated
Feb 16
Waxing Crescent
Feb 17
First Quarter
Feb 25
Full
Mar 4
Last Quarter
Mar 11
New

Hourly Weather History & Observations

Time (CST) Temp. Windchill Dew Point Humidity Pressure Visibility Wind Dir Wind Speed Gust Speed Precip Events Conditions
12:54 AM 1.0 °F - -2.9 °F 83% 30.15 in 10.0 mi Calm Calm - N/A   Overcast
1:54 AM 1.0 °F - -4.0 °F 79% 30.14 in 10.0 mi Calm Calm - N/A   Overcast
2:54 AM 1.0 °F -8.7 °F -2.9 °F 83% 30.12 in 10.0 mi NW 4.6 mph - N/A   Overcast
3:54 AM 1.9 °F -5.6 °F -2.9 °F 80% 30.12 in 10.0 mi NW 3.5 mph - N/A   Overcast
4:54 AM -0.0 °F - -5.1 °F 79% 30.13 in 10.0 mi Calm Calm - N/A   Overcast
5:54 AM -4.0 °F - -8.0 °F 83% 30.14 in 10.0 mi Calm Calm - N/A   Partly Cloudy
6:54 AM -4.0 °F - -9.0 °F 79% 30.15 in 10.0 mi Calm Calm - N/A   Scattered Clouds
7:54 AM -2.9 °F -11.2 °F -7.1 °F 82% 30.16 in 10.0 mi NNW 3.5 mph - N/A   Overcast
8:54 AM 3.0 °F - 1.0 °F 91% 30.16 in 10.0 mi Calm Calm - N/A   Clear
9:54 AM 10.0 °F -2.9 °F 1.9 °F 70% 30.15 in 10.0 mi North 9.2 mph - 0.00 in   Clear
10:54 AM 12.9 °F -2.8 °F 1.0 °F 59% 30.16 in 10.0 mi NNW 15.0 mph 19.6 mph N/A   Clear
11:54 AM 15.1 °F 1.8 °F -0.9 °F 49% 30.15 in 10.0 mi NNW 11.5 mph - N/A   Partly Cloudy
12:54 PM 15.1 °F 3.3 °F -0.9 °F 49% 30.14 in 10.0 mi NW 9.2 mph - N/A   Partly Cloudy
1:54 PM 15.1 °F 3.3 °F -0.9 °F 49% 30.14 in 10.0 mi North 9.2 mph - N/A   Overcast
2:54 PM 15.1 °F 2.5 °F -0.9 °F 49% 30.14 in 10.0 mi NNW 10.4 mph - N/A   Overcast
3:54 PM 14.0 °F 5.1 °F -0.9 °F 52% 30.15 in 10.0 mi NNW 5.8 mph - N/A   Overcast
4:54 PM 12.0 °F 0.5 °F -2.0 °F 53% 30.16 in 10.0 mi NW 8.1 mph - N/A   Clear
5:54 PM 10.0 °F -0.9 °F -2.9 °F 56% 30.19 in 10.0 mi NW 6.9 mph - N/A   Clear
6:54 PM 5.0 °F - -5.1 °F 63% 30.20 in 10.0 mi Calm Calm - N/A   Clear
7:54 PM 1.9 °F -5.6 °F -6.0 °F 69% 30.21 in 10.0 mi North 3.5 mph - N/A   Clear
8:54 PM -4.0 °F - -8.0 °F 83% 30.21 in 10.0 mi Calm Calm - N/A   Clear
9:54 PM -4.0 °F - -8.0 °F 83% 30.19 in 10.0 mi Calm Calm - N/A   Clear
10:54 PM -8.0 °F - -11.9 °F 83% 30.19 in 10.0 mi Calm Calm - N/A   Clear
11:54 PM -9.0 °F - -14.1 °F 79% 30.18 in 10.0 mi Calm Calm - N/A   Clear